Flag for Japan Weather past 2 weeks in Nagoya, Japan

Now
66 °F

Sunny.


Feels Like: 66 °F
Forecast: 44 / 67 °F
Wind: 12 mph from Southeast

Location: Nagoya Airport

Current Time: Apr 18, 2015 at 4:17:16 PM

Latest Report: Apr 18, 2015 at 3:30 PM


Visibility: 10 mi

Pressure: 30.04 "Hg

Humidity: 26%

Dew point: 30 °F

Location of NagoyaLocation

Historic Weather in Nagoya — Graph

°F

Nagoya temperature yesterday

Maximum temperature yesterday: 63 °F (at 1:00 PM)
Minimum temperature yesterday: 52 °F (at 10:30 PM)
Average temperature yesterday: 57 °F

Past Weeks' High & Low Weather Summary

 TemperatureHumidityPressure
High68 °F (Apr 4, 12:00 PM)100% (Apr 3, 3:00 PM)30.36 "Hg (Apr 3, 3:00 PM)
Low43 °F (Apr 18, 5:30 AM)26% (Apr 18, 3:00 PM)29.62 "Hg (Apr 15, 12:00 PM)
Average55 °F79%30.02 "Hg
* Reported Apr 3 3:00 PM — Apr 18 3:00 PM, Nagoya, Weather by CustomWeather, © 2015

Note: Actual official high and low records may vary slightly from our data, if they occured in-between our weather recording intervals... More about our weather records

Advertising

Nagoya weather history for previous 24 hours

 ConditionsComfort  
Time TempWeatherWind HumidityBarometerVisibility
3:00 PM
Sat, Apr 18
66 °FSunny.12 mph26%30.04 "Hg10 mi
2:30 PM63 °FSunny.13 mph52%30.04 "Hg10 mi
2:00 PM64 °FSunny.9 mph32%30.07 "Hg10 mi
1:30 PM61 °FSunny.10 mph52%30.07 "Hg10 mi
1:00 PM66 °FSunny.5 mph30%30.07 "Hg10 mi
12:30 PM59 °FSunny.5 mph51%30.09 "Hg10 mi
11:30 AM57 °FSunny.3 mph48%30.12 "Hg10 mi
11:00 AM57 °FSunny.5 mph51%30.15 "Hg10 mi
10:30 AM55 °FSunny.5 mph55%30.15 "Hg10 mi
10:00 AM55 °FSunny.5 mph55%30.15 "Hg10 mi
9:30 AM55 °FSunny.6 mph55%30.15 "Hg10 mi
9:00 AM54 °FSunny.6 mph63%30.15 "Hg10 mi
8:30 AM52 °FSunny.7 mph50%30.15 "Hg10 mi
8:00 AM52 °FPassing clouds.5 mph47%30.12 "HgN/A
7:30 AM52 °FPassing clouds.6 mph44%30.12 "HgN/A
7:00 AM50 °FSunny.7 mph50%30.12 "Hg10 mi
6:30 AM50 °FPartly sunny.6 mph58%30.09 "HgN/A
6:00 AM48 °FPassing clouds.6 mph71%30.09 "HgN/A
5:30 AM43 °FPassing clouds.8 mph76%30.09 "HgN/A
5:00 AM46 °FPassing clouds.7 mph66%30.09 "HgN/A
4:30 AM48 °FPassing clouds.6 mph58%30.09 "HgN/A
4:00 AM52 °FPassing clouds.7 mph54%30.09 "HgN/A
3:30 AM52 °FPassing clouds.8 mph54%30.09 "HgN/A
3:00 AM48 °FPassing clouds.9 mph62%30.07 "HgN/A
2:30 AM48 °FPassing clouds.9 mph62%30.07 "HgN/A
2:00 AM52 °FPassing clouds.13 mph54%30.07 "HgN/A
1:30 AM52 °FPassing clouds.15 mph58%30.07 "HgN/A
1:00 AM52 °FPassing clouds.14 mph58%30.07 "HgN/A
12:30 AM52 °FPassing clouds.15 mph54%30.07 "HgN/A
12:00 AM52 °FPassing clouds.16 mph50%30.04 "HgN/A
11:30 PM
Fri, Apr 17
52 °FPassing clouds.16 mph54%30.04 "HgN/A
11:00 PM52 °FPassing clouds.14 mph58%30.04 "HgN/A
10:30 PM52 °FClear.20 mph54%30.04 "Hg10 mi
10:00 PM55 °FClear.23 mph47%30.01 "Hg10 mi
9:30 PM55 °FClear.22 mph51%30.01 "Hg10 mi
9:00 PM55 °FClear.21 mph51%30.01 "Hg10 mi
8:30 PM54 °FClear.18 mph51%30.01 "Hg10 mi
8:00 PM55 °FClear.23 mph55%29.98 "Hg10 mi
7:30 PM55 °FClear.28 mph55%29.98 "Hg10 mi
7:00 PM55 °FPassing clouds.30 mph51%29.98 "HgN/A
6:30 PM57 °FPassing clouds.31 mph48%29.95 "HgN/A
6:00 PM57 °FSunny.29 mph44%29.95 "Hg10 mi
5:30 PM57 °FPassing clouds.22 mph48%29.95 "HgN/A
5:00 PM59 °FPassing clouds.29 mph51%29.92 "HgN/A
4:30 PM59 °FPassing clouds.29 mph48%29.92 "HgN/A
4:00 PM59 °FPassing clouds.28 mph48%29.92 "HgN/A
Weather by CustomWeather, © 2015

See weather overviewHow to use our weather pages